This demonstration page uses our WeatherBlox Daily Observations layout. Learn more.

Left ArrowRight Arrow

39.01783, -85.05884

Hourly Observations for June 17, 2021

Temp ( °F °C ) Dew Point ( °F °C ) Humidity (%) Winds ( mph kmh ) Pressure ( in mb ) Visibility ( mi km ) Precip ( " mm )
12:52 am 00:52 Partly Cloudy 66 18.9 47 8.3 50 50 S 3 6 30.01 1016 10 16 N/A
1:52 am 01:52 Mostly Clear 66 18.9 48 8.9 52 52 SSE 3 6 30.00 1016 10 16 N/A
2:52 am 02:52 Mostly Clear 65 18.3 47 8.3 52 52 SSE 3 6 30.01 1016 10 16 N/A
3:52 am 03:52 Partly Cloudy 64 17.8 48 8.9 56 56 N N/A 30.01 1016 10 16 N/A
4:52 am 04:52 Mostly Clear 62 16.7 49 9.4 62 62 S 5 7 30.01 1016 10 16 N/A
5:52 am 05:52 Mostly Clear 62 16.7 49 9.4 62 62 S 5 7 30.02 1017 10 16 N/A
6:52 am 06:52 Mostly Sunny 61 16.1 49 9.4 65 65 SSE 5 7 30.04 1017 9 14 N/A
7:52 am 07:52 Sunny 65 18.3 53 11.7 66 66 S 6 9 30.03 1017 10 16 N/A
8:52 am 08:52 Sunny 70 21.1 51 10.6 51 51 SSW 7 11 30.04 1017 10 16 N/A
9:52 am 09:52 Sunny 73 22.8 52 11.1 48 48 SSW 10 17 30.06 1018 10 16 N/A
10:52 am 10:52 Sunny 75 23.9 55 12.8 50 50 SSW 9 15 30.05 1018 10 16 N/A
11:52 am 11:52 Mostly Sunny 79 26.1 57 13.9 47 47 W 9 15 30.05 1018 10 16 N/A
12:52 pm 12:52 Mostly Sunny 80 26.7 55 12.8 42 42 W 6 9 30.04 1017 10 16 N/A
1:52 pm 13:52 Partly Cloudy 82 27.8 55 12.8 40 40 VRB 6 9 30.02 1017 10 16 N/A
2:52 pm 14:52 Mostly Cloudy 82 27.8 54 12.2 38 38 VRB 6 9 29.99 1016 10 16 N/A
3:52 pm 15:52 Partly Cloudy 83 28.3 55 12.8 38 38 VRB 7 11 29.98 1015 10 16 N/A
4:52 pm 16:52 Partly Cloudy 84 28.9 55 12.8 37 37 S 9 15 29.97 1015 10 16 N/A
5:52 pm 17:52 Partly Cloudy 83 28.3 55 12.8 38 38 SSW 7 11 29.97 1015 10 16 N/A
6:52 pm 18:52 Partly Cloudy 83 28.3 55 12.8 38 38 SSW 7 11 29.96 1015 10 16 N/A
7:52 pm 19:52 Partly Cloudy 80 26.7 55 12.8 42 42 SSW 8 13 29.96 1015 10 16 0.00 0.00
8:52 pm 20:52 Mostly Sunny 77 25 56 13.3 48 48 SSW 5 7 29.98 1015 10 16 N/A
9:52 pm 21:52 Clear 75 23.9 56 13.3 52 52 S 6 9 29.98 1015 10 16 N/A
10:52 pm 22:52 Clear 71 21.7 56 13.3 59 59 S 7 11 30.00 1016 10 16 N/A
11:52 pm 23:52 Clear 71 21.7 57 13.9 61 61 S 8 13 29.99 1016 10 16 N/A

Powered by AerisWeather